Location: Unspecified
(43.3830°N, 0.0000°E)
Time: 13:55:38
(UTC+00:00)

Vanguard 2 - Pass Details

Date: 27 June 2019
Orbit: 553 x 2938 km, 32.9° (Epoch: 20 July)

Event Time Altitude Azimuth Distance (km) Brightness Sun altitude
Rises 13:36:53 0° 254° (WSW) 4,494 11.8 62.2°
Reaches altitude 10° 13:44:25 10° 216° (SW) 4,259 11.9 61.1°
Maximum altitude 13:45:35 10° 210° (SSW) 4,350 11.9 60.9°
Drops below altitude 10° 13:46:48 10° 204° (SSW) 4,473 12.0 60.7°
Sets 13:57:10 0° 169° (S) 6,240 12.3 59.1°
